Volver al catálogo

THORAD AGENA D DEB

ActivoSSO
NORAD 4643·DEBRIS·🇺🇸 United States

Lanzado Apr 8, 1970 desde Vandenberg Space Force Base

Loading…

Próximos Pases (próximas 24 horas)

TLE

ActualizadoSource: Space-Track

Época: Sep 14, 2026, 10:04 UTC

1 04643U 70025AB  26257.41994394  .00000085  00000-0  18279-3 0  9999
2 04643  99.3805 101.4120 0011069 358.8685 120.5156 13.55268793783896

Sigue THORAD AGENA D DEB en tiempo real con AllMySat

Download on the App Store